Probability
0 0 0 0 0 0 0 0 0 0 0 0 0 0 0 0 0 0 0 0 0 0 0 0 0 0 0 0 0 0 0 0 0 0 0 0 2 4 4 4 4 6 6 5
0 0 0 0 0 0 0 0 0 0 0 0 0 0 0 0 0 0 0 0 0 0 0 0 0 0 0 0 0 0 0 0 0 0 0 1 3 4 4 3 3 5 5 5
0 0 0 0 0 0 0 0 0 0 0 0 0 0 0 0 0 0 0 0 0 0 0 0 0 0 0 0 0 0 0 0 0 0 0 2 3 4 4 3 3 3 3 3
0 0 0 0 0 0 0 0 0 0 0 0 0 0 0 0 0 0 0 0 0 0 0 0 0 0 0 0 0 0 0 0 0 1 1 2 3 3 4 4 3 2 1 1
0 0 0 0 0 0 0 0 0 0 0 0 0 0 0 0 0 0 0 0 0 0 0 0 0 0 0 0 0 0 0 0 0 1 2 2 3 4 5 5 3 1 0 0
0 0 0 0 0 0 0 0 0 0 0 0 0 0 0 0 0 0 0 0 0 0 0 0 0 0 0 0 0 0 0 0 0 1 1 1 2 5 6 4 2 0 0 0
0 0 0 0 0 0 0 0 0 0 0 0 0 0 0 0 0 0 0 0 0 0 0 0 0 0 0 0 0 0 0 0 0 0 0 0 1 4 4 2 1 0 0 0
0 0 0 0 0 0 0 0 0 0 0 0 0 0 0 0 0 0 0 0 0 0 0 0 0 0 0 0 0 0 0 0 0 0 0 0 0 1 2 1 0 0 0 0
0 0 0 0 0 0 0 0 0 0 0 0 0 0 0 0 0 0 0 0 0 0 0 0 0 0 0 0 0 0 0 0 0 0 0 0 0 1 2 2 1 1 1 0
0 0 0 0 0 0 0 0 0 0 0 0 0 0 0 0 0 0 0 0 0 0 0 0 0 0 0 0 0 0 0 0 0 0 0 0 0 1 2 3 3 2 2 1
0 0 0 0 0 0 0 0 0 0 0 0 0 0 0 0 0 0 0 0 0 0 0 0 0 0 0 0 0 0 0 0 0 0 0 0 0 1 3 3 3 3 3 3
0 0 0 0 0 0 0 0 0 0 0 0 0 0 0 0 0 0 0 0 0 0 0 0 0 0 0 0 0 0 0 0 0 0 0 0 1 2 3 3 2 2 2 2
0 0 0 0 0 0 0 0 0 0 0 0 0 0 0 0 0 0 0 0 0 0 0 0 0 0 0 0 0 0 0 0 0 0 0 0 1 2 2 1 1 1 1 1
0 0 0 0 0 0 0 0 0 0 0 0 0 0 0 0 0 0 0 0 0 0 0 0 0 0 0 0 0 0 0 0 0 0 0 0 0 1 1 0 0 0 0 0
0 0 0 0 0 0 0 0 0 0 0 0 0 0 0 0 0 0 0 0 0 0 0 0 0 0 0 0 0 0 0 0 0 0 0 0 0 0 0 0 0 0 0 0
0 0 0 0 0 0 0 0 0 0 0 0 0 0 0 0 0 0 0 0 0 0 0 0 0 0 0 0 0 0 0 0 0 0 0 0 0 0 0 0 0 0 0 0
0 0 0 0 0 0 0 0 0 0 0 0 0 0 0 0 0 0 0 0 0 0 0 0 0 0 0 0 0 0 0 0 0 0 0 0 0 0 0 0 0 0 0 0
0 0 0 0 0 0 0 0 0 0 0 0 0 0 0 0 0 0 0 0 0 0 0 0 0 0 0 0 0 0 0 0 0 0 0 0 0 0 0 0 0 0 0 0
0 0 0 0 0 0 0 0 0 0 0 0 0 0 0 0 0 0 0 0 0 0 0 0 0 0 0 0 0 0 0 0 0 0 0 0 0 0 0 0 0 0 0 0
0 0 0 0 0 0 0 0 0 0 0 0 0 0 0 0 0 0 0 0 0 0 0 0 0 0 0 0 0 0 0 0 0 0 0 0 0 0 0 0 0 0 0 0
0 0 0 0 0 0 0 0 0 0 0 0 0 0 0 0 0 0 0 0 0 0 0 0 0 0 0 0 0 0 0 0 0 0 0 0 0 0 0 0 0 0 0 0
0 0 0 0 0 0 0 0 0 0 0 0 0 0 0 0 0 0 0 0 0 0 0 0 0 0 0 0 0 0 0 0 0 0 0 0 0 0 0 0 0 0 0 0
0 0 0 0 0 0 0 0 0 0 0 0 0 0 0 0 0 0 0 0 0 0 0 0 0 0 0 0 0 0 0 0 0 0 0 0 0 0 0 0 0 0 0 0
0 0 0 0 0 0 0 0 0 0 0 0 0 0 0 0 0 0 0 0 0 0 0 0 0 0 0 0 0 0 0 0 0 0 0 0 0 0 0 0 0 0 0 0
0 0 0 0 0 0 0 0 0 0 0 0 0 0 0 0 0 0 0 0 0 0 0 0 0 0 0 0 0 0 0 0 0 0 0 0 0 0 0 0 0 0 0 0
0 0 0 0 0 0 0 0 0 0 0 0 0 0 0 0 0 0 0 0 0 0 0 0 0 0 0 0 0 0 0 0 0 0 0 0 0 0 0 0 0 0 0 0
Wind_Speed
4 4 2 1 1 1 3 4 3 2 0 1 3 3 3 2 1 1 1 1 2 2 3 4 4 4 4 4 4 3 3 3 2 2 1 1 2 2 2 3 4 4 4 4
4 5 3 1 2 3 4 4 2 1 0 1 2 3 3 3 2 1 2 1 2 2 3 5 4 4 4 4 4 3 3 2 2 1 1 1 1 1 2 3 4 4 4 4
6 3 2 2 3 2 1 2 2 2 0 1 1 3 3 3 2 1 1 2 2 1 2 3 4 4 4 4 4 3 3 2 2 2 1 2 1 1 2 3 4 5 5 4
5 3 2 3 2 0 1 1 2 2 2 2 3 4 4 4 4 3 2 2 2 2 2 2 3 4 4 4 4 4 4 3 2 1 1 2 1 2 2 3 3 4 5 5
3 3 3 3 3 1 1 1 2 2 1 2 2 4 3 3 5 5 4 3 2 2 2 2 2 3 4 4 4 4 4 4 3 2 1 1 1 2 2 2 3 3 4 5
2 1 2 2 3 1 2 2 2 1 2 3 4 5 4 4 5 4 3 3 3 2 1 2 3 3 4 4 4 4 4 4 4 3 3 2 2 3 3 4 4 4 3 4
3 2 2 2 1 1 1 2 2 2 3 3 2 5 5 2 2 3 3 2 2 1 1 2 3 3 4 4 4 4 4 4 4 4 4 4 3 3 3 3 3 4 4 4
1 2 3 3 2 1 1 2 1 2 3 1 2 6 3 1 1 1 1 2 1 0 1 2 2 3 3 3 4 4 3 4 4 4 4 4 3 2 2 3 3 3 3 4
1 1 2 2 2 1 2 1 1 1 1 2 4 4 4 1 1 1 2 2 2 1 1 2 2 2 3 3 3 3 3 3 4 4 4 4 4 3 3 3 3 3 3 3
1 1 3 3 1 2 1 2 2 2 2 3 3 4 3 3 4 3 3 3 2 1 1 2 2 2 2 2 3 3 4 3 4 4 4 3 4 3 3 3 3 3 4 4
1 1 2 1 0 1 2 2 1 2 1 3 3 2 1 3 4 5 5 4 3 2 2 2 1 1 2 2 2 3 3 4 4 4 4 3 3 3 3 3 4 4 4 4
1 1 1 2 1 2 2 2 3 2 2 2 3 4 1 3 4 4 4 4 3 3 2 2 2 2 1 2 2 2 2 3 3 4 4 3 3 3 3 3 3 4 4 4
0 1 1 1 2 2 2 3 3 1 1 3 4 5 2 1 2 3 4 4 4 3 3 3 2 2 2 2 1 1 2 2 3 3 3 3 3 3 3 3 4 4 4 4
1 1 3 4 2 1 4 4 5 5 4 5 8 9 7 5 6 5 5 5 5 4 4 4 3 3 2 2 2 2 2 2 2 3 3 3 3 3 3 3 4 4 4 4
1 2 3 5 5 5 7 8 9 10 9 9 9 10 12 9 8 7 6 6 5 6 6 6 5 4 4 3 2 2 2 2 2 2 3 3 3 3 3 3 4 4 4 4
1 1 1 4 2 4 8 11 11 12 11 13 13 15 12 9 7 7 7 7 8 8 7 7 6 5 5 4 4 3 3 2 2 2 3 3 3 3 3 3 4 4 4 4
2 2 1 3 4 5 9 10 11 9 9 10 12 11 6 6 7 8 8 8 9 9 8 7 7 6 6 5 4 4 3 2 2 2 3 3 3 3 3 3 3 4 4 4
3 3 1 2 2 7 4 1 6 9 10 12 12 11 9 9 8 8 8 9 9 9 8 7 7 6 5 5 4 3 2 2 2 3 3 3 3 3 3 3 4 4 4 4
3 4 2 1 4 10 8 4 6 7 8 10 13 13 10 6 7 7 7 8 9 8 7 7 6 6 5 5 4 3 3 3 3 3 3 3 3 3 3 4 4 4 4 4
2 2 3 3 4 8 4 3 3 3 7 5 9 9 7 3 5 5 2 5 6 6 5 5 4 4 5 5 4 4 4 4 4 4 4 3 3 4 4 4 4 4 4 5
4 4 5 6 7 11 5 4 6 5 4 2 6 6 5 7 7 4 3 4 4 5 5 4 4 5 5 4 4 5 5 6 4 3 3 3 3 4 4 4 4 4 4 4
9 8 8 7 8 12 7 9 10 7 1 2 4 5 6 8 7 6 5 5 5 4 4 5 5 5 4 4 5 6 6 5 3 2 3 3 4 3 3 3 4 4 4 4
10 10 8 12 11 3 9 11 7 3 5 5 5 6 6 8 8 8 7 6 6 6 5 4 5 5 4 4 5 7 6 3 3 3 3 4 3 3 3 4 4 4 3 3
7 5 6 9 14 11 11 13 12 10 11 10 8 7 7 9 9 9 8 7 7 6 5 4 5 5 5 5 6 6 4 3 3 4 4 4 4 4 3 3 3 4 4 4
8 9 7 11 12 9 12 15 15 13 11 11 11 10 10 10 10 10 9 8 7 6 5 5 6 7 7 6 6 5 4 4 4 4 4 4 4 4 4 4 4 5 5 5
11 13 12 13 10 9 8 7 8 10 11 11 11 10 10 10 11 10 9 8 7 7 6 6 7 7 7 6 6 5 5 5 5 5 5 4 4 3 3 4 4 6 7 9
Wind_Direction
31 61 58 15 339 97 153 163 167 208 88 182 186 210 252 267 328 336 345 14 24 4 10 14 14 14 13 14 15 12 17 13 16 24 16 6 12 17 18 15 12 5 3 1
78 51 9 34 103 124 126 139 175 161 43 225 209 243 256 253 253 276 292 310 344 354 16 18 16 22 17 6 2 357 356 0 8 6 2 334 328 355 12 8 8 2 1 357
75 29 345 90 94 116 135 181 187 175 192 172 227 238 231 234 230 254 287 299 318 344 2 10 16 19 19 8 354 347 344 343 356 1 22 26 24 15 15 7 3 358 356 352
56 2 34 70 45 283 217 250 199 189 200 193 250 250 224 231 236 238 250 275 298 314 337 358 8 12 15 360 351 348 349 349 350 11 35 36 18 347 334 341 349 353 357 359
60 13 25 29 337 293 201 239 209 220 232 235 227 248 237 215 241 240 232 244 268 290 312 345 1 358 2 2 1 357 359 359 356 3 7 346 328 324 331 345 356 357 353 358
53 7 1 335 318 264 193 169 169 194 222 236 227 242 250 220 241 244 233 240 258 275 313 350 360 4 6 7 12 12 12 12 5 10 14 9 357 350 353 354 351 346 345 350
28 35 14 328 313 100 202 187 177 194 217 234 197 237 254 247 260 249 229 226 248 278 313 336 346 356 358 1 2 13 16 13 11 19 20 14 4 355 351 346 349 344 344 349
33 13 10 360 337 322 204 247 228 228 232 236 204 240 259 354 304 268 213 203 224 273 327 324 328 332 338 349 352 0 11 14 14 14 13 10 3 356 352 355 352 347 341 347
17 341 352 334 324 271 160 164 359 49 41 250 238 263 271 227 222 199 201 207 221 257 303 313 317 325 334 347 352 357 7 15 12 9 9 8 7 5 357 353 350 344 345 342
316 270 317 321 251 77 28 142 162 194 231 255 269 256 257 238 241 223 223 227 234 257 284 302 323 336 342 357 5 13 14 10 5 8 5 1 358 357 353 352 356 351 344 341
291 240 318 331 279 213 150 158 168 154 271 267 275 266 310 263 253 241 234 231 233 244 263 278 287 312 335 353 1 7 14 15 10 5 358 358 353 356 2 1 354 348 342 340
343 278 272 269 321 281 245 214 194 216 208 239 274 277 67 282 268 246 237 231 235 242 252 250 254 282 322 340 343 353 5 3 355 352 355 357 352 350 354 352 346 341 338 340
198 187 273 217 189 198 234 224 213 214 187 210 238 260 95 308 274 249 243 242 241 240 240 244 251 265 286 312 319 334 349 343 340 344 347 351 351 347 350 350 346 345 345 344
162 203 236 259 301 249 241 225 209 202 219 228 238 264 271 272 274 269 256 252 249 245 241 241 248 253 263 284 288 294 311 320 326 332 335 337 340 342 344 344 343 342 341 341
181 227 250 273 283 273 258 248 227 222 228 236 249 257 268 277 274 268 258 252 247 244 239 238 244 246 246 254 262 275 287 300 308 315 322 325 331 336 340 341 340 339 339 337
105 206 265 281 272 281 268 254 239 237 238 244 260 269 270 277 267 260 250 243 244 242 240 241 243 240 240 241 246 253 263 274 286 296 305 316 324 330 333 333 334 332 333 332
158 155 230 273 318 304 265 237 210 216 220 220 237 253 265 262 255 251 246 243 243 245 243 240 240 238 236 235 236 242 249 259 270 284 296 306 314 319 321 322 320 321 323 323
155 137 173 295 329 252 246 123 205 222 241 230 245 262 264 265 276 267 252 245 246 246 241 238 237 239 238 233 232 237 237 240 257 274 286 296 298 302 310 312 311 314 316 314
191 165 168 217 269 277 283 221 192 212 263 234 236 254 264 278 289 269 243 238 242 243 242 239 234 236 235 227 219 216 223 233 247 261 272 280 282 286 295 299 304 310 309 306
136 165 179 193 240 253 259 142 165 184 268 228 217 244 258 241 274 289 256 238 244 244 242 239 234 231 230 226 207 210 223 230 241 252 264 274 275 275 280 288 295 299 298 296
167 183 203 211 240 264 255 152 158 202 254 189 208 233 225 224 249 303 301 263 248 246 241 231 224 226 232 214 198 215 227 236 245 252 259 268 270 270 273 280 286 290 293 293
183 180 193 186 217 251 176 160 200 228 282 234 240 237 234 245 263 274 275 268 259 252 240 225 224 234 230 206 202 221 234 239 235 236 248 258 264 267 269 274 282 284 284 285
211 203 191 200 222 259 178 206 228 254 258 261 257 254 248 257 261 263 264 261 257 251 244 229 227 233 232 214 210 226 236 220 208 224 241 252 261 265 265 264 269 274 273 274
225 210 218 246 257 251 243 249 255 251 252 260 260 260 251 255 261 261 260 255 249 247 241 234 225 229 236 224 222 231 227 191 197 222 238 243 247 255 257 259 258 262 264 267
211 181 212 248 264 275 256 243 245 249 249 253 255 251 251 254 256 255 255 250 247 246 238 226 226 232 236 227 226 225 205 188 207 226 235 239 240 245 251 254 255 260 262 266
198 194 202 235 229 221 246 241 231 235 243 245 248 252 247 240 248 251 250 248 244 242 238 232 231 233 236 227 227 218 199 195 207 225 232 233 234 238 245 256 269 265 269 276